{"data":{"norad_id":63440,"epoch":"2026-09-20T10:44:23.006400Z","epoch_age_seconds":160249,"freshness":"FRESH","line1":"1 63440U 25069H   26263.44748850  .00011823  00000+0  36044-3 0  9992","line2":"2 63440  53.1600 309.9852 0001196  78.9947 281.1190 15.34405362 83221","mean_motion":15.34405362,"eccentricity":0.0001196,"inclination_deg":53.16,"raan_deg":309.9852,"arg_perigee_deg":78.9947,"mean_anomaly_deg":281.119,"bstar":0.00036044,"rev_number":8322,"period_min":93.847430129093,"perigee_km":461.86914067285,"apogee_km":463.50546584619,"semimajor_km":6840.8243032595,"source":"CELESTRAK","updated_at":"2026-09-21T09:00:35.002592Z"}}